N2GWK Weather Reports


Display with metric or nautical units.
time (UTC)temp
F
wind
direction
speed
MPH
gust
MPH
rain 1hr
in
rain 24hr
in
rain mn
in
humidity
%
barometer
mb
20260509052516 59 0.0 0.0 0.00 0.00 0.00 71 1009.9
20260509051552 59 0.0 0.0 0.00 0.00 0.00 70 1010.0
20260509050531 59 0.0 0.0 0.00 0.00 0.00 70 1010.0
20260509045553 59 0.0 0.0 0.00 0.00 0.00 71 1009.9
20260509044518 58 0.0 0.0 0.00 0.00 0.00 72 1009.8
20260509043529 58 0.0 0.0 0.00 0.00 0.00 73 1009.8
20260509042532 58 0.0 0.0 0.00 0.00 0.00 75 1010.1
20260509041518 58 0.0 0.0 0.00 0.00 0.00 75 1010.1
20260509040522 58 0.0 0.0 0.00 0.00 0.00 71 1010.2
20260509035545 58 0.0 0.0 0.00 0.00 0.00 70 1010.3
20260509034529 59 0.0 0.0 0.00 0.00 0.00 70 1010.3
20260509033526 59 0.0 0.0 0.00 0.00 0.00 66 1010.3
20260509032524 60 0.0 0.0 0.00 0.00 0.00 66 1010.6
20260509031521 61 0.0 0.0 0.00 0.00 0.00 64 1010.6
20260509030519 61 0.0 0.0 0.00 0.00 0.00 62 1010.7
20260509025517 61 0.0 0.0 0.00 0.00 0.00 63 1010.8
20260509024522 61 0.0 0.0 0.00 0.00 0.00 63 1010.8
20260509023520 61 0.0 0.0 0.00 0.00 0.00 63 1010.8
20260509022537 61 0.0 0.0 0.00 0.00 0.00 63 1010.8
20260509021520 62 0.0 0.0 0.00 0.00 0.00 61 1010.9
20260509020523 62 0.0 0.0 0.00 0.00 0.00 61 1010.8
20260509015548 62 0.0 0.0 0.00 0.00 0.00 60 1010.6
20260509014530 62 0.0 0.0 0.00 0.00 0.00 58 1010.8
20260509013516 63 0.0 0.0 0.00 0.00 0.00 57 1010.8
20260509012532 63 0.0 0.0 0.00 0.00 0.00 57 1010.8
20260509011545 64 186 1.0 3.0 0.00 0.00 0.00 55 1010.8
20260509010529 65 180 0.0 1.0 0.00 0.00 0.00 54 1010.8
20260509005533 65 205 1.0 4.0 0.00 0.00 0.00 53 1010.8
20260509004530 66 203 1.0 3.0 0.00 0.00 0.00 53 1010.5
20260509003515 67 180 1.0 3.0 0.00 0.00 0.00 52 1010.5
20260509002519 67 185 1.0 4.0 0.00 0.00 0.00 52 1010.5
20260509001517 68 185 2.0 4.0 0.00 0.00 0.00 51 1010.6
20260509000520 69 185 1.0 4.0 0.00 0.00 0.00 50 1010.6
20260508235518 70 0.0 4.0 0.00 0.00 0.00 50 1010.6
20260508234521 71 0.0 0.0 0.00 0.00 0.00 48 1010.6
20260508233524 72 0.0 0.0 0.00 0.00 0.00 47 1010.8
20260508232528 74 0.0 0.0 0.00 0.00 0.00 44 1011.0
20260508231526 74 183 1.0 6.0 0.00 0.00 0.00 43 1011.1
20260508230522 75 0.0 0.0 0.00 0.00 0.00 43 1011.2
20260508225521 76 147 1.0 5.0 0.00 0.00 0.00 42 1011.2
20260508224519 76 203 1.0 5.0 0.00 0.00 0.00 42 1011.0
20260508223518 76 0.0 0.0 0.00 0.00 0.00 43 1011.0
20260508222549 77 203 1.0 4.0 0.00 0.00 0.00 42 1011.0
20260508221526 75 158 1.0 4.0 0.00 0.00 0.00 44 1011.0
20260508220528 75 0.0 1.0 0.00 0.00 0.00 43 1010.9
20260508215607 76 167 1.0 4.0 0.00 0.00 0.00 43 1010.8
20260508214530 74 225 0.0 3.0 0.00 0.00 0.00 43 1011.3
20260508213547 74 223 2.0 6.0 0.00 0.00 0.00 43 1011.3
20260508212528 74 248 0.0 4.0 0.00 0.00 0.00 44 1011.6
20260508211525 73 220 2.0 4.0 0.00 0.00 0.00 45 1011.7
20260508210527 74 234 2.0 9.0 0.00 0.00 0.00 44 1011.8
20260508205530 74 0.0 3.0 0.00 0.00 0.00 44 1011.7
20260508204528 74 234 3.0 8.0 0.00 0.00 0.00 44 1011.8
20260508203551 75 218 2.0 8.0 0.00 0.00 0.00 44 1012.2
20260508202516 75 226 1.0 6.0 0.00 0.00 0.00 45 1012.1
20260508201519 73 0.0 0.0 0.00 0.00 0.00 46 1012.3
20260508200544 74 0.0 1.0 0.00 0.00 0.00 48 1012.4
20260508195526 74 234 2.0 7.0 0.00 0.00 0.00 45 1012.6
20260508194529 75 173 1.0 6.0 0.00 0.00 0.00 45 1012.8
20260508193555 74 0.0 3.0 0.00 0.00 0.00 45 1013.1
20260508192519 75 270 1.0 5.0 0.00 0.00 0.00 46 1013.2
20260508191517 75 225 1.0 5.0 0.00 0.00 0.00 46 1013.2
20260508190520 75 188 1.0 3.0 0.00 0.00 0.00 49 1013.1
20260508185524 75 203 1.0 4.0 0.00 0.00 0.00 49 1013.1
20260508184520 74 0.0 0.0 0.00 0.00 0.00 46 1013.2
20260508183518 74 311 1.0 6.0 0.00 0.00 0.00 48 1013.3
20260508182517 74 0.0 2.0 0.00 0.00 0.00 48 1013.7
20260508181532 74 186 1.0 4.0 0.00 0.00 0.00 47 1013.9
20260508180518 73 198 2.0 5.0 0.00 0.00 0.00 46 1013.9
20260508175517 73 201 2.0 5.0 0.00 0.00 0.00 49 1013.8
20260508174520 72 251 1.0 4.0 0.00 0.00 0.00 47 1014.1
20260508173543 72 216 2.0 5.0 0.00 0.00 0.00 47 1014.4
20260508172528 72 248 1.0 4.0 0.00 0.00 0.00 49 1014.7
20260508171525 72 188 3.0 6.0 0.00 0.00 0.00 49 1014.9
20260508170545 72 242 1.0 3.0 0.00 0.00 0.00 48 1015.1
20260508165521 72 195 2.0 4.0 0.00 0.00 0.00 50 1015.4
20260508164600 72 239 2.0 5.0 0.00 0.00 0.00 51 1015.6
20260508163523 71 219 1.0 4.0 0.00 0.00 0.00 52 1015.9
20260508162526 72 164 2.0 4.0 0.00 0.00 0.00 52 1016.2
20260508161531 71 204 2.0 4.0 0.00 0.00 0.00 51 1016.2
20260508160516 72 203 2.0 4.0 0.00 0.00 0.00 50 1016.3
20260508155532 69 233 3.0 5.0 0.00 0.00 0.00 54 1016.4
20260508154519 68 158 2.0 3.0 0.00 0.00 0.00 55 1016.6
20260508153523 68 150 3.0 4.0 0.00 0.00 0.00 54 1016.7
20260508152526 67 147 2.0 3.0 0.00 0.00 0.00 55 1016.8
20260508151529 67 219 3.0 4.0 0.00 0.00 0.00 56 1016.8
20260508150615 66 194 3.0 5.0 0.00 0.00 0.00 55 1016.9
20260508145517 66 205 2.0 5.0 0.00 0.00 0.00 56 1017.0
20260508144528 64 203 3.0 7.0 0.00 0.00 0.00 57 1017.0
20260508143520 63 173 3.0 5.0 0.00 0.00 0.00 59 1017.1
20260508142522 62 190 2.0 3.0 0.00 0.00 0.00 64 1017.0
20260508141520 60 204 3.0 6.0 0.00 0.00 0.00 67 1017.0
20260508140518 58 270 1.0 4.0 0.00 0.00 0.00 70 1016.9
20260508135521 57 158 2.0 4.0 0.00 0.00 0.00 72 1016.9
20260508134539 55 167 2.0 4.0 0.00 0.00 0.00 72 1017.0
20260508133537 54 189 2.0 4.0 0.00 0.00 0.00 74 1017.0
20260508132534 52 0.0 0.0 0.00 0.00 0.00 78 1017.0
20260508131553 51 0.0 0.0 0.00 0.00 0.00 80 1017.1
20260508130516 49 0.0 0.0 0.00 0.00 0.00 84 1017.0
20260508125532 49 0.0 0.0 0.00 0.00 0.00 85 1017.0
20260508124517 48 0.0 0.0 0.00 0.00 0.00 89 1017.0
20260508123520 47 0.0 0.0 0.00 0.00 0.00 89 1017.1
20260508122518 46 0.0 0.0 0.00 0.00 0.00 90 1016.6
20260508121521 0 0.0 0.0 0.00 0.00 0.00 1016.5
20260508120519 0 0.0 0.0 0.00 0.00 0.00 1016.4
20260508115522 0 0.0 0.0 0.00 0.00 0.00 1016.4
20260508114527 0 0.0 0.0 0.00 0.00 0.00 1016.3
20260508113525 0 0.0 0.0 0.00 0.00 0.00 1016.3
20260508112524 0 0.0 0.0 0.00 0.00 0.00 1016.1
20260508111524 0 0.0 0.0 0.00 0.00 0.00 1015.9
20260508110520 0 0.0 0.0 0.00 0.00 0.00 1015.8
20260508105518 0 0.0 0.0 0.00 0.00 0.00 1015.7
20260508104521 0 0.0 0.0 0.00 0.00 0.00 1015.7
20260508103519 0 0.0 0.0 0.00 0.00 0.00 1015.7
20260508102523 0 0.0 0.0 0.00 0.00 0.00 1015.7
20260508101526 0 0.0 0.0 0.00 0.00 0.00 1015.7
20260508100523 0 0.0 0.0 0.00 0.00 0.00 1015.8
20260508095520 0 0.0 0.0 0.00 0.00 0.00 1015.9
20260508094519 0 0.0 0.0 0.00 0.00 0.00 1015.9
20260508093533 0 0.0 0.0 0.00 0.00 0.00 1015.7
20260508092519 0 0.0 0.0 0.00 0.00 0.00 1015.7
20260508091522 0 0.0 0.0 0.00 0.00 0.00 1015.7
20260508090546 0 0.0 0.0 0.00 0.00 0.00 1015.7
20260508085519 0 0.0 0.0 0.00 0.00 0.00 1015.7
20260508084524 0 0.0 0.0 0.00 0.00 0.00 1015.7
20260508083527 0 0.0 0.0 0.00 0.00 0.00 1015.9
20260508082529 0 0.0 0.0 0.00 0.00 0.00 1015.9
20260508081553 0 0.0 0.0 0.00 0.00 0.00 1015.9
20260508080525 0 0.0 0.0 0.00 0.00 0.00 1015.9
20260508075549 0 0.0 0.0 0.00 0.00 0.00 1015.9
20260508074532 0 0.0 0.0 0.00 0.00 0.00 1015.9
20260508073517 0 0.0 0.0 0.00 0.00 0.00 1015.9
20260508072533 0 0.0 0.0 0.00 0.00 0.00 1015.9
20260508071520 0 0.0 0.0 0.00 0.00 0.00 1015.8
20260508070521 0 0.0 0.0 0.00 0.00 0.00 1015.8
20260508065524 0 0.0 0.0 0.00 0.00 0.00 1015.9
20260508064527 0 0.0 0.0 0.00 0.00 0.00 1016.1
20260508063552 0 0.0 0.0 0.00 0.00 0.00 1016.1
20260508062516 0 0.0 0.0 0.00 0.00 0.00 1016.1
20260508061518 0 0.0 0.0 0.00 0.00 0.00 1016.1
20260508060522 0 0.0 0.0 0.00 0.00 0.00 1016.1
20260508055520 0 0.0 0.0 0.00 0.00 0.00 1016.3
20260508054519 0 0.0 0.0 0.00 0.00 0.00 1016.4
20260508053515 0 0.0 0.0 0.00 0.00 0.00 1016.4